Find SpaceMobile-003

NORAD ID: 61045 Int'l Des: 2024-163 Owner: ASTS Country: US Constellation: bluewalker operational
LEOCIRCULAR

Live Position

Loading 3D Globe...

About SpaceMobile-003

Description loading...

Upcoming Passes

Passes for default location (London). Set your location on the main map for personalized predictions.

Altitude History

Loading altitude history...

Two-Line Element Set

1 61045U 24163A 26106.83854512 -.00051497 00000-0 -22944-2 0 9994
2 61045 52.9785 231.5752 0004253 317.8469 42.2198 15.20995633 88433
Epoch: Apr 16, 2026 • Age: 13 hours

Current Status

Altitude 503.8 km
Velocity 7.61 km/s
Sub-Earth Point -13.04°S, 116.38°W
Launch Date Sep 12, 2024
Age 1.5 years
Type other

Technical Details

Classification Payload
Mass 1500.00 kg
Dry Mass 1500.00 kg
Total Mass 1500.00 kg
Length 1.00 m
Diameter 1.00 m
Span 9.00 m
Shape Box + plate
Manufacturer ASTS
Bus Type BW3
Phase Status In Orbit
Owner/State ASTS/US

Most Searched